Regional Weather Roundup
Issued by NWS State College, PA

Home | Current Version | Previous Version | Text Only | Print | Product List | Glossary On
Versions: 1 2 3 4 5 6 7 8 9 10 11 12 13 14 15 16 17 18 19 20 21 22 23 24 25 26 27 28 29 30 31 32 33 34 35 36 37 38 39 40 41 42 43 44 45 46 47 48 49 50
000
ASUS41 KCTP 191310
RWRCTP

REGIONAL WEATHER ROUNDUP
NATIONAL WEATHER SERVICE STATE COLLEGE PA
800 AM EST FRI JAN 19 2018

Note: "fair" indicates few or no clouds below 12,000 feet with no
significant weather and/or obstructions to visibility.

* = STATION THAT DOES NOT REPORT PRECIPITATION /E.G. RAIN...SNOW...ETC/
    THUNDER OR FOG.

PAZ002>004-007>009-013>016-020>023-029>032-191400-
WESTERN PENNSYLVANIA

CITY           SKY/WX    TMP DP  RH WIND       PRES   REMARKS
ERIE           FAIR      23  11  60 SW14      30.01R WCI  11
MEADVILLE      FAIR      18  10  71 SW14      30.01R WCI   4
FRANKLIN*      FAIR      17  10  74 SW14      30.02F WCI   3
NEW CASTLE     FAIR      19  11  70 VRB7      30.08F WCI  10
BEAVER COUNTY  CLEAR     19  10  68 S8        30.08F WCI   9
BUTLER*        FAIR      19  11  70 S12       30.09F WCI   7
PITTSBURGH INT MOCLDY    22  10  60 SW9       30.10S WCI  12
PITTSBURGH     FAIR      20   8  60 S9        30.11R WCI   9
INDIANA*       CLEAR     21  10  63 SW12G18   30.12F WCI   9
LATROBE        CLEAR     23   9  54 SW14G25   30.15R WCI  11
WASHINGTON CO* FAIR      22  11  62 SW10      30.17R WCI  11
$$

PAZ004>006-010>012-017>019-024>028-033>037-041-042-045-046-049>053-191400-
CENTRAL PENNSYLVANIA

CITY           SKY/WX    TMP DP  RH WIND       PRES   REMARKS
BRADFORD       FAIR      16   9  74 VRB6      29.94F WCI   7
DUBOIS         FAIR      18   8  65 SW13G22   29.99F WCI   5
CLEARFIELD     FAIR      21  10  62 SW12G20   30.03S WCI   9
JOHNSTOWN      FAIR      22   9  57 W15G24    30.02R WCI   9
ALTOONA        FAIR      26  12  55 W17       30.06R WCI  13
STATE COLLEGE  PTCLDY    23  10  58 SW9       30.05S WCI  13
WILLIAMSPORT   FAIR      15  10  80 N3        30.06R
SELINSGROVE    FAIR      10   8  92 CALM      30.08S FOG
FT INDIANTOWN  FAIR      13  12  98 CALM      30.07S
CAPITAL CITY   FAIR      21  14  74 E3        30.08S
HARRISBURG     CLOUDY    22  16  78 E3        30.08S
YORK           FAIR      23  15  71 CALM      30.08S
$$

PAZ038>040-043-044-047-048-054-055-060>062-067>071-191400-
EASTERN PENNSYLVANIA

CITY           SKY/WX    TMP DP  RH WIND       PRES   REMARKS
SCRANTON       FAIR      20  11  68 SW7       30.02R WCI  11
MOUNT POCONO   FAIR      19  11  70 W18G28    29.93S WCI   4
ALLENTOWN      FAIR      12   7  80 CALM      30.06S
QUAKERTOWN*    FAIR       9   7  92 CALM      30.06S
READING        FAIR      15  12  88 CALM      30.07S
LANCASTER      FAIR      18  14  84 CALM      30.08S
COATESVILLE    FAIR      27  12  54 VRB3      30.07F
POTTSTOWN      FAIR      15  12  88 CALM      30.09S FOG
BLUE BELL      FAIR      21  18  86 CALM      30.10S
DOYLESTOWN     FAIR      20  12  71 S3        30.06S
WILLOW GROVE   NOT AVBL
NORTH PHILA    FAIR      24  17  74 CALM      30.11S
PHILADELPHIA   MOCLDY    26  19  74 W6        30.11S
$$




USA.gov is the U.S. government's official web portal to all federal, state and local government web resources and services.